Regional Weather Roundup
Issued by NWS

Home | Current Version | Previous Version | Graphics & Text | Print | Product List | Glossary On
Versions: 1 2 3 4 5 6 7 8 9 10 11 12 13 14 15 16 17 18 19 20 21 22 23 24 25 26 27 28 29 30 31 32 33 34 35 36 37 38 39 40 41 42 43 44 45 46 47 48 49 50
000
ASUS43 KBIS 172110
RWRND

NORTH DAKOTA REGIONAL WEATHER ROUNDUP
NATIONAL WEATHER SERVICE BISMARCK ND
400 PM CDT WED SEP 17 2014

NOTE: "FAIR" INDICATES FEW OR NO CLOUDS BELOW 12,000 FEET WITH NO
SIGNIFICANT WEATHER AND/OR OBSTRUCTIONS TO VISIBILITY.


NDZ001>003-009>011-017-172200-
NORTHWEST NORTH DAKOTA

CITY           SKY/WX    TMP DP  RH WIND       PRES   REMARKS
WILLISTON      SUNNY     77  39  25 SE10      29.93F
MINOT          SUNNY     68  50  52 NE12      29.99S
MINOT AFB      SUNNY     67  51  54 E12       29.99S
$$

NDZ018>021-031>035-040>046-172200-
SOUTHWEST NORTH DAKOTA

CITY           SKY/WX    TMP DP  RH WIND       PRES   REMARKS
BISMARCK       MOSUNNY   76  47  35 E8        29.97S
DICKINSON      PTSUNNY   72  46  39 SE12      29.96R
GARRISON         N/A     74  46  36 E7        29.97F
HETTINGER ARPT LGT RAIN  67  50  54 SE8       29.97S
$$

NDZ004>008-012>016-024-026-027-054-172200-
NORTHEAST NORTH DAKOTA

CITY           SKY/WX    TMP DP  RH WIND       PRES   REMARKS
GRAND FORKS    MOSUNNY   65  50  58 NE12      30.02R
GRND FRKS AFB  SUNNY     63  51  66 N10       30.03S
DEVILS LAKE    SUNNY     61  46  59 E7        30.02R
$$

NDZ022-023-025-028>030-036>039-047>053-172200-
SOUTHEAST NORTH DAKOTA

CITY           SKY/WX    TMP DP  RH WIND       PRES   REMARKS
FARGO          SUNNY     74  48  39 N13       29.96S
JAMESTOWN      SUNNY     72  47  40 NE5       29.97S
$$



USA.gov is the U.S. government's official web portal to all federal, state and local government web resources and services.